This is the latest recevied weather packets stored in our database for station/object K8GLX. If no packets are shown the sender has not sent any weather packets the latest 10 day(s).
| Time | Temp. | Humidity | Pressure | Rain* | Wind** | Luminosity | Snow |
|---|---|---|---|---|---|---|---|
| 1777757534 | 6.67° C | 61% | 1016.8 hPa | 0 mm | - | 142 W/m² | - |
| 1777757229 | 6.67° C | 59% | 1016.8 hPa | 0 mm | - | 177 W/m² | - |
| 1777756935 | 7.22° C | 59% | 1016.6 hPa | 0 mm | - | 231 W/m² | - |
| 1777756628 | 6.11° C | 61% | 1016.6 hPa | 0 mm | - | 375 W/m² | - |
| 1777756335 | 6.11° C | 61% | 1016.6 hPa | 0 mm | - | 309 W/m² | - |
| 1777756029 | 6.11° C | 62% | 1016.7 hPa | 0 mm | - | 242 W/m² | - |
| 1777755734 | 6.11° C | 62% | 1016.7 hPa | 0 mm | - | 181 W/m² | - |
| 1777755428 | 6.11° C | 62% | 1016.9 hPa | 0 mm | - | 148 W/m² | - |
| 1777755134 | 6.11° C | 62% | 1016.9 hPa | 0 mm | - | 133 W/m² | - |
| 1777754828 | 6.11° C | 62% | 1017 hPa | 0 mm | - | 154 W/m² | - |
| 1777754534 | 6.11° C | 62% | 1016.7 hPa | 0 mm | - | 161 W/m² | - |
| 1777754228 | 6.11° C | 61% | 1016.9 hPa | 0 mm | - | 176 W/m² | - |
| 1777753936 | 6.67° C | 60% | 1016.7 hPa | 0 mm | - | 204 W/m² | - |
| 1777753629 | 6.11° C | 60% | 1016.8 hPa | 0 mm | - | 232 W/m² | - |
| 1777753461 | 6.67° C | 60% | 1017 hPa | 0 mm | - | 252 W/m² | - |
| 1777753029 | 6.11° C | 59% | 1016.9 hPa | 0 mm | - | 268 W/m² | - |
| 1777752734 | 6.67° C | 58% | 1017.1 hPa | 0 mm | - | 317 W/m² | - |
| 1777752429 | 6.67° C | 58% | 1017 hPa | 0 mm | - | 338 W/m² | - |
| 1777752261 | 6.67° C | 58% | 1017 hPa | 0 mm | - | 397 W/m² | - |
| 1777751904 | 6.67° C | 58% | 1017.1 hPa | 0 mm | - | 424 W/m² | - |
| 1777751628 | 6.67° C | 57% | 1017 hPa | 0 mm | - | 674 W/m² | - |
| 1777751341 | 6.67° C | 56% | 1017.1 hPa | 0 mm | - | 600 W/m² | - |
| 1777751061 | 7.22° C | 58% | 1017.1 hPa | 0 mm | - | 674 W/m² | - |
| 1777750632 | 6.67° C | 57% | 1017.2 hPa | 0 mm | - | 669 W/m² | - |
| 1777750563 | 6.67° C | 57% | 1017.1 hPa | 0 mm | - | 673 W/m² | - |
* Rain latest hour (hover to see other rain measurements)
** Current wind speed in m/s (hover to see current wind gust speed)